Location: Alphen
(52.1351°N, 4.6549°E)
Time: 01:56:15
(UTC+00:00)

SL-16 R/B - Pass Details

Date: 27 January 2021
Orbit: 839 x 850 km, 71.0° (Epoch: 27 February)

Event Time Altitude Azimuth Distance (km) Brightness Sun altitude
Rises 05:11:30 0° 200° (SSW) 3,384 5.2 -20.9°
Reaches altitude 10° 05:13:56 10° 198° (SSW) 2,455 4.5 -20.5°
Maximum altitude 05:19:32 69° 116° (ESE) 905 2.5 -19.7°
Drops below altitude 10° 05:25:11 10° 34° (NE) 2,478 5.0 -18.8°
Sets 05:27:39 0° 32° (NNE) 3,419 5.7 -18.4°
